Regional Weather Roundup
Issued by NWS Green Bay, WI

Home | Current Version | Previous Version | Text Only | Print | Product List | Glossary On
Versions: 1 2 3 4 5 6 7 8 9 10 11 12 13 14 15 16 17 18 19 20 21 22 23 24 25 26 27 28 29 30 31 32 33 34 35 36 37 38 39 40 41 42 43 44 45 46 47 48 49 50
000
ASUS43 KGRB 020911
RWRGRB

NORTH-CENTRAL AND NORTHEAST WISCONSIN REGIONAL WEATHER ROUNDUP
NATIONAL WEATHER SERVICE GREEN BAY WI
400 AM CDT SUN AUG 02 2015

WIZ005-009-010>012-018-019-021000-
NORTH CENTRAL WISCONSIN

CITY           SKY/WX    TMP DP  RH WIND       PRES   REMARKS
IRONWOOD       PTCLDY    68  63  83 SW7       29.64F
MANITOWISH WTR PTCLDY    62  62 100 CALM      29.71S
ARBOR VITAE    PTCLDY    63  61  92 S7        29.71F
EAGLE RIVER    PTCLDY    62  56  82 SW3       29.72F
LAND O LAKES   PTCLDY    56  55  96 CALM      29.73F
RHINELANDER    PTCLDY    68  61  78 SW10      29.75F
PHILLIPS       CLEAR     64  62  95 SW3       29.71F
ANTIGO         MOCLDY    60  59  97 S5        29.76F
TOMAHAWK       PTCLDY    62  59  91 CALM      29.74F
MERRILL        NOT AVBL
$$

WIZ013-073-021000-
NORTHEAST WISCONSIN

CITY           SKY/WX    TMP DP  RH WIND       PRES   REMARKS
IRON MOUNTAIN  PTCLDY    56  52  86 SE3       29.70F
MARINETTE      MOCLDY    66  54  63 W6        29.71F
OCONTO         CLOUDY    64  63  95 SW10      29.74S
$$

WIZ017-030-035>037-045-021000-
CENTRAL WISCONSIN

CITY           SKY/WX    TMP DP  RH WIND       PRES   REMARKS
MEDFORD        PTCLDY    67  65  91 SW9       29.74F
WAUSAU         MOCLDY    65  64  97 E3        29.74F THUNDER
MOSINEE        MOCLDY    64  63  94 S3        29.77F THUNDER
MARSHFIELD     MOCLDY    67  62  84 SW7       29.76F
WISC RAPIDS    MOCLDY    70  64  81 SW5       29.78F
STEVENS POINT  MOCLDY    65  62  87 S3        29.77F
WAUPACA        CLOUDY    67  64  87 CALM      29.77F
SHAWANO        CLOUDY    67  61  82 SW3       29.75F THUNDER
CLINTONVILLE   CLOUDY    68  59  73 N6        29.76F
$$

WIZ038-039-048-051-021000-
FOX VALLEY

CITY           SKY/WX    TMP DP  RH WIND       PRES   REMARKS
NWS GREEN BAY  CLOUDY    68  62  81 SW6       29.76F
APPLETON       CLOUDY    70  61  73 SW6       29.78F
OSHKOSH        CLOUDY    67  61  81 SW5       29.78S
FOND DU LAC    CLOUDY    68  64  87 S6        29.80S
$$

WIZ022-050-052-021000-
EAST CENTRAL WISCONSIN

CITY           SKY/WX    TMP DP  RH WIND       PRES   REMARKS
STURGEON BAY   CLOUDY    68  57  68 SW12      29.76F
MANITOWOC      CLOUDY    71  62  73 MISG      29.78F
SHEBOYGAN      MOCLDY    70  65  84 W8        29.80S
$$

LMZ563-521-522-541>543-021000-
LAKESHORE

STATION/POSITION TIME  TEMP    WIND        PRES    VSBY  WAVE
                       AIR SEA DIR/SP/G                  HT/PER
                 (UTC) (F)     (DEG/KT/KT) (MB)    (MI)  (FT/S)
SHEBOYGAN LKSHOR 0900   71     250/ 10/ 11 1008.9S
KEWAUNEE LKSHORE 0800   65     250/  1/  2 1007.9F
ALGOMA MARINA    0827             CALM       N/A
NORTHPORT PIER   0800   66     170/  3/  6 1007.1F
N MID LAKE BUOY  0850   70 68  210/ 14/ 17 1006.1F         2/ 4
S GREEN BAY BUOY 0800   71 69  190/ 12/ 14 1008.9F
CHAMBERS ISLAND  0800   70     180/  5/  9 1007.1F
MENOMINEE LKSHOR 0800   70     200/  7/ 11 1007.7F
$$



USA.gov is the U.S. government's official web portal to all federal, state and local government web resources and services.